Printer-friendly version
Follow the MPC on Twitter Follow the MPC on Facebook The MPC blog
Minor Planet Center

MPEC 2010-P38 : 2010 OH126

The following Minor Planet Electronic Circular may be linked-to from your own Web pages, but must not otherwise be redistributed electronically.

A form allowing access to any MPEC is at the bottom of this page.


Read MPEC 2010-P37 Read MPEC 2010-P39


M.P.E.C. 2010-P38                                Issued 2010 Aug. 7, 20:37 UT

     The Minor Planet Electronic Circulars contain information on unusual
         minor planets and routine data on comets.  They are published
   on behalf of Commission 20 of the International Astronomical Union by the
          Minor Planet Center, Smithsonian Astrophysical Observatory,
                          Cambridge, MA 02138, U.S.A.

             Prepared using the Tamkin Foundation Computer Network

                              MPC@CFA.HARVARD.EDU
       URL http://www.minorplanetcenter.org/iau/mpc.html  ISSN 1523-6714

                                  2010 OH126

Observations:
     K10OC6H* S2010 07 31.51790 04 23 05.04 -51 01 45.5          21   R EP038C51
     K10OC6H  s2010 07 31.51790 1 + 3649.0247 + 1743.8877 - 5609.9871   EP038C51
     K10OC6H  S2010 07 31.58399 04 22 34.21 -51 02 48.4                 EP038C51
     K10OC6H  s2010 07 31.58399 1 + 3673.0084 + 1770.6877 - 5585.8316   EP038C51
     K10OC6H  S2010 07 31.65021 04 22 03.58 -51 03 50.2                 EP038C51
     K10OC6H  s2010 07 31.65021 1 + 3645.2219 + 1751.8300 - 5609.9786   EP038C51
     K10OC6H  S2010 07 31.71629 04 21 33.12 -51 04 52.3                 EP038C51
     K10OC6H  s2010 07 31.71629 1 + 3668.3129 + 1777.9994 - 5586.5966   EP038C51
     K10OC6H  S2010 07 31.78238 04 21 02.64 -51 05 53.0                 EP038C51
     K10OC6H  s2010 07 31.78238 1 + 3691.0343 + 1804.1398 - 5563.2151   EP038C51
     K10OC6H  S2010 07 31.84860 04 20 32.31 -51 06 51.9                 EP038C51
     K10OC6H  s2010 07 31.84860 1 + 3662.7716 + 1785.0621 - 5588.0185   EP038C51
     K10OC6H  S2010 07 31.91469 04 20 02.15 -51 07 52.4                 EP038C51
     K10OC6H  s2010 07 31.91469 1 + 3685.8147 + 1811.8928 - 5564.0348   EP038C51
     K10OC6H  S2010 07 31.98090 04 19 31.96 -51 08 50.9                 EP038C51
     K10OC6H  s2010 07 31.98090 1 + 3658.4065 + 1793.5727 - 5588.2700   EP038C51
     K10OC6H QC2010 08 05.78448 03 47 32.84 -51 55 08.1          19.9 R EP038E12
     K10OC6H QC2010 08 05.78976 03 47 30.84 -51 55 10.2          19.4 R EP038E12
     K10OC6H QC2010 08 06.80102 03 41 41.77 -52 00 19.1          19.9 R EP038E12
     K10OC6H QC2010 08 06.80512 03 41 40.26 -52 00 20.1                 EP038E12
     K10OC6H QC2010 08 06.81259 03 41 37.62 -52 00 22.4                 EP038E12

Observer details:
C51 WISE.  Measurers A. K. Mainzer, E. L. Wright, J. M. Bauer, T. Grav,
    J. W. Dailey, J. R. Masiero, R. M. Cutri, R. S. McMillan,
    R. G. Walker. (http://wise.ssl.berkeley.edu/mission_sci.html).
E12 Siding Spring Survey.  Observer G. J. Garradd.  0.5-m Uppsala Schmidt
    + CCD.

Orbital elements:
2010 OH126                                               Earth MOID = 0.0639 AU
Epoch 2010 July 23.0 TT = JDT 2455400.5                 MPC
M   9.76454              (2000.0)            P               Q
n   0.41688049     Peri.  174.70797     +0.04550376     +0.97105549
a   1.7747138      Node    97.75124     -0.92499479     +0.12959708
e   0.4642240      Incl.   13.68842     -0.37724534     -0.20063854
P   2.36           H   21.3           G   0.15           U   8
Residuals in seconds of arc
100731 C51  0.2+  0.5-    100731 C51  0.1+  0.9+    100806 E12  0.2-  0.4-
100731 C51  0.6-  0.1-    100731 C51  0.1+  0.0     100806 E12  0.3-  0.1+
100731 C51  0.2+  0.1+    100731 C51  0.4-  0.3-    100806 E12  0.4+  0.3+
100731 C51  0.6+  0.2-    100805 E12  0.0   0.2-
100731 C51  0.2-  0.1+    100805 E12  0.0   0.1+

Ephemeris:
2010 OH126               a,e,i = 1.77, 0.46, 14                  q = 0.9508
Date    TT    R. A. (2000) Decl.     Delta      r     Elong.  Phase     V
2010 08 02    04 12.01   -51 22.6    0.151    1.030    91.5    80.1    20.1
2010 08 12    03 15.29   -52 11.8    0.202    1.079   103.5    66.0    20.3
2010 08 22    02 34.21   -51 50.0    0.253    1.135   113.1    55.1    20.6
2010 09 01    01 59.03   -50 40.9    0.305    1.196   121.2    46.2    20.9
2010 09 11    01 27.53   -48 38.4    0.360    1.261   127.9    39.0    21.1
2010 09 21    01 00.98   -45 39.2    0.422    1.327   132.7    33.8    21.5
2010 10 01    00 40.80   -41 56.0    0.494    1.395   135.0    30.5    21.8
2010 10 11    00 27.20   -37 47.1    0.577    1.462   134.5    29.1    22.2
2010 10 21    00 19.66   -33 29.5    0.673    1.529   131.9    29.0    22.6
2010 10 31    00 17.11   -29 16.3    0.782    1.595   127.6    29.5    23.1

Carl W. Hergenrother         (C) Copyright 2010 MPC           M.P.E.C. 2010-P38

Read MPEC 2010-P37 Read MPEC 2010-P39


MPEC number:

Enter an MPEC number in one of the following forms:

  • 1997-B01 (the full form)
  • J97B01 (the packed version of the full form)
  • B01 (the abbreviated form)

Valid HTML 4.01!